Location: Peasmarsh
(50.9667°N, 0.6833°E)
Time: 11:53:00
(UTC+00:00)

Daily predictions for brighter satellites

Satellite Brightness Start Highest point End
(mag) Time Altitude Azimuth Time Altitude Azimuth Time Altitude Azimuth
ARGOS Delta rocket 4.1 20:28:39 10° SSE 20:33:29 55° ENE 20:38:05 10° N
NOSS 2-1 (D) 4.4 20:31:48 10° NNW 20:35:06 36° NE 20:39:22 10° ESE
Cosmos 1340 4.1 20:36:21 10° NNE 20:38:56 20° ENE 20:41:31 10° ESE
Sich 1 4.1 20:36:44 10° N 20:40:40 31° ENE 20:44:34 10° SE
Okean O Rocket 3.3 20:37:43 10° SSW 20:41:41 32° W 20:45:41 10° NNW
SPOT 3 Rocket 4.0 20:36:51 10° SE 20:41:45 48° ENE 20:46:42 10° N
CZ-4 R/B 4.3 20:40:57 10° WSW 20:42:27 12° W 20:43:57 10° WNW
USA 307 -0.5 20:42:16 10° W 20:43:04 40° SSW 20:43:28 21° SE
Cosmos 2221 3.1 20:41:03 10° SSW 20:45:19 62° WNW 20:49:38 10° N
Cosmos 2292 Rocket 4.3 20:40:28 10° SSW 20:46:40 78° W 20:51:23 10° N
USA 281 3.7 20:44:07 10° SE 20:50:27 52° NE 20:56:49 10° NNW
Cosmos 1766 Rocket 4.5 20:46:19 10° NNW 20:50:38 50° W 20:54:57 10° S
Ariane Rocket 3.2 20:48:48 10° SSE 20:53:48 65° ENE 20:58:51 10° N
MetOp-B 4.5 20:48:37 10° S 20:53:57 68° WSW 20:59:19 10° NNW
Terra 1.8 21:00:00 10° SSE 21:04:43 89° ENE 21:09:28 10° NNW
Cosmos 1452 Rocket 3.8 21:00:46 10° NNW 21:05:58 65° WSW 21:11:09 10° S
Cosmos 1340 Rocket 3.7 21:03:13 11° SSE 21:06:37 31° E 21:10:10 10° NNE
Cosmos 1743 Rocket 4.0 21:02:43 10° N 21:07:01 50° ENE 21:10:55 12° SSE
MOS 1 Rocket 3.7 21:02:06 10° SSE 21:07:13 69° ENE 21:12:35 10° N
Cosmos 921 Rocket 4.3 21:03:06 10° SW 21:07:26 46° WNW 21:11:46 10° NNE
NOSS 2-1 (C) 3.7 21:08:06 10° NW 21:11:41 63° NE 21:16:11 12° SE
USA 234 4.1 21:05:27 10° ENE 21:11:48 55° N 21:18:08 10° W
Lacrosse 5 rocket 3.0 21:08:10 10° WNW 21:12:11 37° N 21:16:06 10° ENE
Cosmos 468 4.5 21:07:03 10° SSW 21:12:14 73° ESE 21:17:27 10° NNE
CZ-4C R/B 4.4 21:09:55 10° N 21:13:34 46° WNW 21:17:21 10° SW
ARIANE 5 R/B 4.4 21:13:05 10° ESE 21:16:15 20° ENE 21:19:25 10° NNE
Cosmos 1408 Rocket 3.7 21:12:21 10° NNW 21:16:50 80° W 21:21:16 10° S
ERS-1 Rocket 3.4 21:13:04 10° S 21:18:03 63° WSW 21:23:04 10° NNW
Meteor 2-10 4.1 21:13:42 10° N 21:19:17 80° ENE 21:24:13 12° SSE
Cosmos 2279 Rocket 4.4 21:17:46 10° NNW 21:23:54 65° W 21:30:01 10° S
Spot 1 4.3 21:20:32 10° NNE 21:24:28 45° E 21:28:05 13° S
USA 245 3.6 21:22:29 10° SSW 21:24:29 30° W 21:26:41 10° NNW
SL-8 R/B 3.7 21:19:57 10° WSW 21:24:38 61° S 21:29:20 10° E
Cosmos 1626 3.9 21:24:36 12° ESE 21:25:41 13° E 21:27:19 10° NE
Nadezhda 4 Rocket 4.1 21:21:26 10° S 21:27:29 60° E 21:33:39 10° NNE
SPOT 5 4.3 21:28:47 10° SSW 21:32:42 28° W 21:36:31 10° NW
Meteor 1-10 Rocket 4.4 21:28:18 10° SSW 21:34:00 76° WNW 21:39:39 10° N
SL-16 R/B 4.4 21:29:33 10° WSW 21:34:31 30° NW 21:39:31 10° NNE
Meteor 1-19 Rocket 4.3 21:29:20 10° S 21:35:12 74° E 21:40:54 10° NNE
Cosmos 1603 3.7 21:31:09 10° SSW 21:36:50 89° ESE 21:42:36 10° NNE
Cosmos 1833 Rocket 4.4 21:35:25 12° ESE 21:37:30 15° E 21:40:34 10° ENE
Cosmos 2369 Rocket 4.2 21:34:04 10° NW 21:37:59 20° W 21:41:55 10° SW
Okean 1 3.4 21:34:25 10° SSW 21:38:16 76° W 21:42:11 10° N
Cosmos 1151 Rocket 3.2 21:37:09 15° S 21:40:37 57° E 21:44:54 10° NNE
Cosmos 1975 3.3 21:36:50 10° N 21:40:39 46° ENE 21:43:09 19° SE
Meteor 1-11 Rocket 4.3 21:36:18 10° NNW 21:41:51 56° W 21:47:28 10° S
Meteor 2-17 Rocket 4.4 21:41:49 10° S 21:47:51 80° E 21:53:56 10° NNE
Cosmos 1302 Rocket 4.2 21:43:33 10° NNW 21:48:43 67° WSW 21:52:42 17° S
Cosmos 1536 4.2 21:45:50 10° NNW 21:49:21 33° W 21:52:52 10° SSW
Cosmos 1992 Rocket 4.1 21:44:10 10° NNW 21:49:24 70° ENE 21:53:10 19° SE
Cosmos 1726 4.2 21:48:32 10° NW 21:50:42 17° W 21:52:50 10° SW
Cosmos 1500 Rocket 4.3 21:47:29 10° NNW 21:51:39 47° W 21:55:23 12° SSW
USA 306 4.3 21:50:11 10° W 21:53:08 21° SW 21:54:47 16° S
Cosmos 1656 3.7 21:48:36 10° NNW 21:54:05 70° ENE 21:58:06 19° SE
Cosmos 1766 4.3 21:54:00 10° N 21:57:22 30° ENE 21:59:18 19° ESE
Cosmos 1805 3.1 21:55:36 10° N 21:59:19 86° W 22:01:33 23° S
Lacrosse 4 Rocket 1.3 21:55:48 10° NNW 21:59:53 78° NE 22:02:26 23° SE
Cosmos 1733 4.0 21:57:22 10° NNW 22:00:41 40° W 22:03:12 16° SSW
Cosmos 1470 Rocket 4.4 21:57:26 10° N 22:01:37 38° ENE 22:04:11 20° SE
Cosmos 1805 Rocket 4.4 21:58:00 10° NNW 22:02:12 45° W 22:05:48 14° SSW
H-2A R/B 3.6 22:02:15 18° ESE 22:04:49 34° ENE 22:08:42 10° N
IRIDIUM 104 4.3 22:00:31 10° N 22:05:46 77° E 22:09:23 20° S
Cosmos 2026 Rocket 4.1 22:02:10 17° S 22:06:59 63° E 22:13:08 10° NNE
Cosmos 1470 4.5 22:04:38 10° NNE 22:07:28 20° ENE 22:09:19 15° ESE
Cosmos 1633 Rocket 3.2 22:04:30 10° N 22:08:54 66° ENE 22:11:28 24° SSE
USA 59 Rocket 0.5 22:06:20 10° NW 22:10:07 52° SW 22:13:06 22° SSE
Cosmos 1666 Rocket 3.5 22:06:40 10° N 22:11:00 83° ENE 22:13:32 24° SSE
Landsat 5 3.6 22:07:21 10° N 22:11:07 64° WNW 22:14:26 13° SSW
NOSS 3-3 (A) 4.2 22:08:04 16° S 22:12:02 42° ESE 22:17:56 10° NE
NOSS 2-1 (E) 4.0 22:08:25 10° NW 22:12:13 51° SW 22:15:08 23° SSE
Cosmos 1340 3.8 22:10:12 10° NNW 22:13:15 31° W 22:15:25 16° SSW
IRIDIUM 114 4.3 22:09:39 10° N 22:14:55 90° WNW 22:18:30 21° S
Sich 1 4.5 22:14:12 10° NNW 22:18:05 32° W 22:21:38 12° SSW
CZ-2C R/B 3.8 22:16:50 10° NNE 22:21:16 55° E 22:23:38 26° S
Cosmos 220 Rocket 3.9 22:18:09 17° SSW 22:21:26 82° ESE 22:25:46 10° NNE
Cosmos 44 Rocket 3.8 22:16:42 10° NW 22:21:37 55° NE 22:25:16 17° ESE
IRIDIUM 103 4.4 22:18:50 10° N 22:24:04 77° W 22:27:37 21° S
NOSS 2-1 (D) 4.4 22:21:09 10° WNW 22:24:50 38° SW 22:27:17 23° S
Cosmos 1818 3.7 22:21:17 15° SSW 22:25:44 55° ESE 22:31:05 10° NE
NOSS 3-4 (A) 4.2 22:20:09 10° NW 22:26:39 59° NE 22:34:12 10° ESE
NOSS 3-4 (C) 4.2 22:20:15 10° NW 22:26:45 59° NE 22:34:18 10° ESE
NOSS 8 (A) 4.5 22:23:32 10° SW 22:27:20 76° NW 22:30:24 10° NE
ALOS 2 3.8 22:26:21 18° ESE 22:28:54 33° ENE 22:32:52 10° N
BREEZE-M DEB (TANK) 4.5 22:31:06 21° ESE 22:31:06 21° ESE 22:34:36 10° E
Cosmos 1697 Rocket 3.0 22:26:01 10° NNW 22:31:37 61° NE 22:35:28 20° SE
USA 281 4.0 22:30:22 17° S 22:35:05 42° WSW 22:41:19 10° NW
Cosmos 1553 Rocket 4.0 22:30:04 10° N 22:36:09 71° ENE 22:39:57 24° SSE
GEOS 3 Rocket 3.6 22:31:36 10° NE 22:36:50 88° NW 22:41:57 10° SW
Meteor 2-4 Rocket 3.9 22:33:19 16° SSW 22:38:07 78° WNW 22:44:06 10° N
Cosmos 1674 3.3 22:37:26 31° SE 22:38:16 36° E 22:41:31 10° NNE
Cosmos 1980 Rocket 3.3 22:34:27 10° NNW 22:39:49 40° NE 22:44:38 13° ESE
NOSS 3-3 (C) 3.8 22:38:08 16° SSW 22:42:36 62° SE 22:48:58 10° NE
Terra 4.2 22:40:38 10° WSW 22:42:59 14° W 22:45:21 10° NW
MINOTAUR 4 R/B 3.4 22:40:48 10° NNE 22:43:47 88° WNW 22:44:36 45° SSW
Cosmos 1066 Rocket 4.3 22:41:55 24° S 22:45:36 74° E 22:51:28 10° NNE
Lacrosse 5 rocket 2.6 22:47:10 10° WNW 22:51:13 42° NNE 22:55:08 10° E
ARIANE 5 R/B 2.9 22:50:12 28° S 22:52:18 57° WSW 22:56:34 10° NNW
Cosmos 1908 3.9 22:49:44 10° N 22:53:08 39° ENE 22:54:20 29° ESE
USA 234 3.8 22:47:56 10° E 22:54:22 60° NNE 23:00:47 10° WNW
Cosmos 1269 Rocket 4.0 22:54:32 19° SSW 22:58:19 86° WNW 23:03:39 10° NNE
Cosmos 1092 Rocket 4.4 22:53:12 15° SSW 22:58:21 61° WNW 23:04:39 10° N
Cosmos 1626 2.7 22:57:24 25° SW 22:58:51 41° WNW 23:01:58 10° N
Cosmos 2251 Rocket 4.4 23:01:48 25° SE 23:03:41 33° ESE 23:08:21 10° NE
PSLV R/B 4.0 23:01:28 10° N 23:05:31 70° WNW 23:07:35 28° SSW
SL-8 R/B 3.7 23:02:10 10° W 23:06:51 59° S 23:10:29 16° ESE
Cosmos 1707 2.7 23:09:21 42° SSE 23:10:17 58° E 23:13:54 10° NNE
BREEZE-M DEB (TANK) 2.6 23:08:21 10° W 23:14:08 11° ESE 23:14:29 10° ESE
Cosmos 1441 Rocket 3.6 23:09:54 10° N 23:13:23 46° ENE 23:14:30 34° ESE
SL-16 R/B 4.2 23:09:15 10° NNW 23:13:50 24° NE 23:18:25 10° E
Cosmos 2266 Rocket 4.2 23:12:28 27° SSE 23:15:49 61° E 23:22:01 10° NNE
Spot 4 3.9 23:13:59 32° S 23:16:10 70° WSW 23:20:57 10° NNW
Cosmos 1842 3.0 23:15:46 42° SSW 23:16:57 88° WNW 23:20:39 10° N
Cosmos 1833 Rocket 2.6 23:17:04 24° SSW 23:20:31 81° ESE 23:26:10 10° NNE
Cosmos 2082 Rocket 3.2 23:23:06 24° SE 23:25:10 31° ESE 23:30:06 10° NE
Cosmos 1300 3.8 23:26:22 10° N 23:29:36 31° ENE 23:30:52 24° ESE
Cosmos 1515 Rocket 4.0 23:28:42 27° SW 23:30:50 55° WNW 23:35:06 10° N
Meteor 1-22 Rocket 4.2 23:25:45 10° N 23:31:05 73° ENE 23:33:54 29° SSE
KORONAS-FOTON 3.9 23:30:14 39° SSW 23:31:27 66° WNW 23:35:09 10° N
Cosmos 2228 Rocket 4.2 23:31:44 25° SE 23:33:23 34° E 23:37:27 10° NNE
Meteor 1-15 Rocket 4.2 23:29:39 10° N 23:35:20 79° ENE 23:38:16 29° SSE
SL-08 ROCKET BODY 4.5 23:33:08 28° S 23:36:32 77° E 23:42:44 10° NNE
H-2A R/B 2.7 23:32:40 10° NNE 23:36:55 43° E 23:38:23 32° SE
Lacrosse 4 Rocket 3.4 23:35:22 10° WNW 23:37:37 14° WSW 23:38:21 14° WSW
Cosmos 1733 Rocket 3.9 23:33:47 10° N 23:37:55 42° ENE 23:39:58 25° SE
H-2A R/B 3.8 23:38:15 23° SW 23:39:47 30° W 23:43:34 10° NNW
Cosmos 1869 Rocket 3.5 23:36:30 10° NNW 23:40:52 75° W 23:42:30 38° S
Cosmos 1470 3.6 23:39:33 10° NNW 23:42:59 36° W 23:43:59 30° SW
SOZ 4.4 23:43:01 10° WSW 23:46:26 74° SSE 23:48:53 10° ENE
GP-B 3.1 23:50:41 10° N 23:55:07 77° E 23:56:49 37° S
Cosmos 1400 Rocket 3.1 23:54:09 38° SSE 23:55:18 53° E 23:59:12 10° NNE
